User: anonymous   Login
Location: Unspecified
(0.0000°N, 0.0000°E)
Time: 03:38:58
(UTC+00:00)
Language:

WISE - Orbit

View from above orbital plane
View from above orbital plane
View from above satellite
View from above satellite

Ground track
Ground track

The orbit data is extracted from the following two-line orbital elements,

1 36119U 09071A   17265.58850615 +.00000903 +00000-0 +35263-4 0  9991
2 36119 097.4444 293.3848 0002323 009.6457 350.4826 15.28510035431132
Epoch (UTC): 22 September 2017 14:07:26
Eccentricity: 0.0002323
inclination: 97.4444°
perigee height: 478 km
apogee height: 482 km
right ascension of ascending node: 293.3848°
argument of perigee: 9.6457°
revolutions per day: 15.28510035
mean anomaly at epoch: 350.4826°
orbit number at epoch: 43113

The dashed part of the orbit path shows where the satellite is in the earth's shadow,  

DLR